Regional Weather Roundup
Issued by NWS

Home | Current Version | Previous Version | Graphics & Text | Print | Product List | Glossary On
Versions: 1 2 3 4 5 6 7 8 9 10 11 12 13 14 15 16 17 18 19 20 21 22 23 24 25 26 27 28 29 30 31 32 33 34 35 36 37 38 39 40 41 42 43 44 45 46 47 48 49 50
000
ASUS43 KTOP 070159
RWRKS

WEATHER ROUNDUP FOR KANSAS
NATIONAL WEATHER SERVICE GOODLAND KS
800 PM CST FRI MAR 06 2015

NOTE:  "FAIR" INDICATES FEW OR NO CLOUDS BELOW 12,000 FEET WITH NO
SIGNIFICANT WEATHER AND/OR OBSTRUCTIONS TO VISIBILITY.

KSZ001>006-013>018-027>032-041>047-070300-
NORTHWEST KANSAS

CITY           SKY/WX    TMP DP  RH WIND       PRES   REMARKS
GOODLAND       CLEAR     45  21  38 SW12      30.23R
HAYS           CLEAR     46  16  29 W10       30.20S
HILL CITY      CLEAR     48  14  25 W8        30.19R
RUSSELL        CLEAR     43  16  33 SW6       30.18R
$$

KSZ061>065-074>080-084>089-070300-
SOUTHWEST KANSAS

CITY           SKY/WX    TMP DP  RH WIND       PRES   REMARKS
DODGE CITY     CLEAR     49  16  26 S3        30.25R
ELKHART          N/A     41  26  55 SE10        N/A
GARDEN CITY    CLEAR     43  20  39 S5        30.23S
GREAT BEND     CLEAR     45  18  33 SW10      30.22R
LIBERAL        CLEAR     46  27  46 S5        30.27S
$$

KSZ066>073-081>083-090>101-070300-
SOUTHEAST KANSAS

CITY           SKY/WX    TMP DP  RH WIND       PRES   REMARKS
CHANUTE        CLEAR     41  27  57 S10       30.30R
COFFEYVILLE    FAIR      45  27  49 S10       30.33R
HUTCHINSON     CLEAR     47  29  49 S12       30.23R
MEDICINE LODGE   N/A     49  31  49 S12       30.25R
NEWTON         CLEAR     46  27  46 S14       30.25S
PARSONS        CLEAR     45  28  51 S5        30.33R
WICHITA INTL   CLEAR     47  29  49 S14       30.26R
WICHITA JABRA  CLEAR     50  28  42 S15       30.26R
WINFIELD       CLEAR     46  29  51 S8        30.31R
$$

KSZ007>012-019>026-033>040-048>060-102>105-070300-
NORTHEAST KANSAS

CITY           SKY/WX    TMP DP  RH WIND       PRES   REMARKS
CONCORDIA      PTCLDY    48  18  30 SW8       30.16F
EMPORIA        CLEAR     44  28  53 S13       30.23R
LAWRENCE       CLEAR     48  26  42 SW12      30.21S
MANHATTAN      CLEAR     49  26  41 SW13      30.19R
OLATHE IND     CLEAR     46  27  47 S12       30.23S
OLATHE EXE     CLEAR     47  26  44 SW7       30.22S
SALINA         CLEAR     46  20  35 SW10      30.20R
TOPEKA BILLARD CLEAR     50  26  39 S6        30.21R
TOPEKA FORBES  CLEAR     46  28  49 S9        30.20S
$$



USA.gov is the U.S. government's official web portal to all federal, state and local government web resources and services.